| time (UTC) | temp F | wind direction | speed MPH | gust MPH | rain 1hr in | rain 24hr in | rain mn in | humidity % | barometer mb |
| 20260901104727 | 60 | 0 | 0.0 | 0.0 | 0.00 | 0.00 | 0.00 | 95 | 1007.5 |
| 20260901104227 | 60 | 0 | 0.0 | 0.0 | 0.00 | 0.00 | 0.00 | 95 | 1007.4 |
| 20260901103727 | 60 | 0 | 0.0 | 0.0 | 0.00 | 0.00 | 0.00 | 95 | 1007.5 |
| 20260901103228 | 60 | 0 | 0.0 | 0.0 | 0.00 | 0.00 | 0.00 | 95 | 1007.4 |
| 20260901102727 | 60 | 0 | 0.0 | 0.0 | 0.00 | 0.00 | 0.00 | 95 | 1007.4 |
| 20260901102228 | 60 | 0 | 0.0 | 0.0 | 0.00 | 0.00 | 0.00 | 95 | 1007.4 |
| 20260901101727 | 60 | 0 | 0.0 | 0.0 | 0.00 | 0.00 | 0.00 | 94 | 1007.4 |
| 20260901101227 | 60 | 0 | 0.0 | 0.0 | 0.00 | 0.00 | 0.00 | 94 | 1007.4 |
| 20260901100727 | 60 | 0 | 0.0 | 0.0 | 0.00 | 0.00 | 0.00 | 94 | 1007.4 |
| 20260901100227 | 60 | 0 | 0.0 | 0.0 | 0.00 | 0.00 | 0.00 | 94 | 1007.4 |
| 20260901095727 | 60 | 0 | 0.0 | 0.0 | 0.00 | 0.00 | 0.00 | 94 | 1007.4 |
| 20260901095228 | 60 | 0 | 0.0 | 0.0 | 0.00 | 0.00 | 0.00 | 93 | 1007.4 |
| 20260901094727 | 60 | 0 | 0.0 | 0.0 | 0.00 | 0.00 | 0.00 | 93 | 1007.4 |
| 20260901094228 | 60 | 0 | 0.0 | 0.0 | 0.00 | 0.00 | 0.00 | 93 | 1007.5 |
| 20260901093727 | 60 | 0 | 0.0 | 0.0 | 0.00 | 0.00 | 0.00 | 93 | 1007.5 |
| 20260901093227 | 60 | 0 | 0.0 | 0.0 | 0.00 | 0.00 | 0.00 | 93 | 1007.5 |
| 20260901092727 | 60 | 0 | 0.0 | 0.0 | 0.00 | 0.00 | 0.00 | 92 | 1007.4 |
| 20260901092228 | 60 | 0 | 0.0 | 0.0 | 0.00 | 0.00 | 0.00 | 92 | 1007.5 |
| 20260901091727 | 60 | 0 | 0.0 | 0.0 | 0.00 | 0.00 | 0.00 | 92 | 1007.4 |
| 20260901091229 | 60 | 0 | 0.0 | 0.0 | 0.00 | 0.00 | 0.00 | 92 | 1007.5 |
| 20260901090844 | 60 | 0 | 0.0 | 0.0 | 0.00 | 0.00 | 0.00 | 92 | 1007.5 |
| 20260901090727 | 60 | 0 | 0.0 | 0.0 | 0.00 | 0.00 | 0.00 | 92 | 1007.5 |
| 20260901090227 | 60 | 0 | 0.0 | 0.0 | 0.00 | 0.00 | 0.00 | 92 | 1007.5 |
| 20260901085727 | 60 | 0 | 0.0 | 0.0 | 0.00 | 0.00 | 0.00 | 92 | 1007.5 |
| 20260901085228 | 60 | 0 | 0.0 | 0.0 | 0.00 | 0.00 | 0.00 | 92 | 1007.5 |
| 20260901084727 | 60 | 0 | 0.0 | 0.0 | 0.00 | 0.00 | 0.00 | 91 | 1007.5 |
| 20260901084227 | 60 | 0 | 0.0 | 0.0 | 0.00 | 0.00 | 0.00 | 91 | 1007.5 |
| 20260901083727 | 60 | 0 | 0.0 | 0.0 | 0.00 | 0.00 | 0.00 | 91 | 1007.5 |
| 20260901083227 | 61 | 0 | 0.0 | 0.0 | 0.00 | 0.00 | 0.00 | 91 | 1007.5 |
| 20260901082727 | 61 | 0 | 0.0 | 0.0 | 0.00 | 0.00 | 0.00 | 91 | 1007.6 |
| 20260901082228 | 61 | 0 | 0.0 | 0.0 | 0.00 | 0.00 | 0.00 | 91 | 1007.6 |
| 20260901081727 | 61 | 0 | 0.0 | 0.0 | 0.00 | 0.00 | 0.00 | 91 | 1007.5 |
| 20260901081229 | 61 | 0 | 0.0 | 0.0 | 0.00 | 0.00 | 0.00 | 91 | 1007.5 |
| 20260901080727 | 61 | 0 | 0.0 | 0.0 | 0.00 | 0.00 | 0.00 | 91 | 1007.5 |
| 20260901080227 | 61 | 0 | 0.0 | 0.0 | 0.00 | 0.00 | 0.00 | 91 | 1007.5 |
| 20260901075727 | 61 | 0 | 0.0 | 0.0 | 0.00 | 0.00 | 0.00 | 91 | 1007.5 |
| 20260901075227 | 61 | 0 | 0.0 | 0.0 | 0.00 | 0.00 | 0.00 | 91 | 1007.5 |
| 20260901074727 | 61 | 0 | 0.0 | 0.0 | 0.00 | 0.00 | 0.00 | 91 | 1007.5 |
| 20260901074228 | 61 | 0 | 0.0 | 0.0 | 0.00 | 0.00 | 0.00 | 91 | 1007.5 |
| 20260901073727 | 61 | 0 | 0.0 | 0.0 | 0.00 | 0.00 | 0.00 | 91 | 1007.5 |
| 20260901073228 | 61 | 0 | 0.0 | 0.0 | 0.00 | 0.00 | 0.00 | 90 | 1007.5 |
| 20260901072727 | 61 | 0 | 0.0 | 0.0 | 0.00 | 0.00 | 0.00 | 90 | 1007.5 |
| 20260901072227 | 61 | 0 | 0.0 | 0.0 | 0.00 | 0.00 | 0.00 | 90 | 1007.4 |
| 20260901071727 | 61 | 0 | 0.0 | 0.0 | 0.00 | 0.00 | 0.00 | 90 | 1007.4 |
| 20260901071227 | 61 | 0 | 0.0 | 0.0 | 0.00 | 0.00 | 0.00 | 89 | 1007.4 |
| 20260901070728 | 61 | 0 | 0.0 | 4.0 | 0.00 | 0.00 | 0.00 | 89 | 1007.4 |
| 20260901070228 | 61 | 0 | 0.0 | 4.0 | 0.00 | 0.00 | 0.00 | 89 | 1007.4 |
| 20260901065727 | 61 | 205 | 0.0 | 4.0 | 0.00 | 0.00 | 0.00 | 89 | 1007.4 |
| 20260901065227 | 61 | 205 | 0.0 | 2.0 | 0.00 | 0.00 | 0.00 | 89 | 1007.4 |
| 20260901064727 | 61 | 250 | 0.0 | 4.0 | 0.00 | 0.00 | 0.00 | 88 | 1007.4 |
| 20260901064227 | 61 | 0 | 0.0 | 4.0 | 0.00 | 0.00 | 0.00 | 88 | 1007.3 |
| 20260901063727 | 61 | 235 | 0.0 | 4.0 | 0.00 | 0.00 | 0.00 | 88 | 1007.4 |
| 20260901063229 | 62 | 0 | 0.0 | 0.0 | 0.00 | 0.00 | 0.00 | 88 | 1007.4 |
| 20260901062727 | 61 | 0 | 0.0 | 0.0 | 0.00 | 0.00 | 0.00 | 88 | 1007.4 |
| 20260901062227 | 61 | 0 | 0.0 | 0.0 | 0.00 | 0.00 | 0.00 | 88 | 1007.4 |
| 20260901061727 | 61 | 0 | 0.0 | 5.0 | 0.00 | 0.00 | 0.00 | 87 | 1007.4 |
| 20260901061227 | 61 | 0 | 0.0 | 5.0 | 0.00 | 0.00 | 0.00 | 87 | 1007.4 |
| 20260901060727 | 62 | 259 | 0.0 | 5.0 | 0.00 | 0.00 | 0.00 | 87 | 1007.4 |
| 20260901060229 | 62 | 0 | 0.0 | 0.0 | 0.00 | 0.00 | 0.00 | 87 | 1007.4 |
| 20260901055727 | 62 | 0 | 0.0 | 0.0 | 0.00 | 0.00 | 0.00 | 86 | 1007.4 |
| 20260901055227 | 62 | 0 | 0.0 | 0.0 | 0.00 | 0.00 | 0.00 | 86 | 1007.4 |
| 20260901054727 | 62 | 0 | 0.0 | 0.0 | 0.00 | 0.00 | 0.00 | 86 | 1007.4 |
| 20260901054227 | 62 | 0 | 0.0 | 0.0 | 0.00 | 0.00 | 0.00 | 85 | 1007.3 |
| 20260901053727 | 62 | 0 | 0.0 | 0.0 | 0.00 | 0.00 | 0.00 | 85 | 1007.3 |
| 20260901053227 | 62 | 0 | 0.0 | 5.0 | 0.00 | 0.00 | 0.00 | 84 | 1007.3 |
| 20260901052727 | 62 | 0 | 0.0 | 5.0 | 0.00 | 0.00 | 0.00 | 84 | 1007.3 |
| 20260901052227 | 63 | 228 | 0.0 | 5.0 | 0.00 | 0.00 | 0.00 | 83 | 1007.3 |
| 20260901051727 | 63 | 205 | 1.0 | 2.0 | 0.00 | 0.00 | 0.00 | 83 | 1007.4 |
| 20260901051227 | 63 | 0 | 0.0 | 0.0 | 0.00 | 0.00 | 0.00 | 83 | 1007.3 |
| 20260901050727 | 63 | 0 | 0.0 | 0.0 | 0.00 | 0.00 | 0.00 | 83 | 1007.4 |
| 20260901050227 | 63 | 0 | 0.0 | 0.0 | 0.00 | 0.00 | 0.00 | 83 | 1007.3 |
| 20260901045726 | 63 | 0 | 0.0 | 0.0 | 0.00 | 0.00 | 0.00 | 83 | 1007.2 |
| 20260901045227 | 63 | 0 | 0.0 | 0.0 | 0.00 | 0.00 | 0.00 | 83 | 1007.2 |
| 20260901044727 | 63 | 0 | 0.0 | 0.0 | 0.00 | 0.00 | 0.00 | 83 | 1007.2 |
| 20260901044227 | 63 | 0 | 0.0 | 0.0 | 0.00 | 0.00 | 0.00 | 83 | 1007.2 |
| 20260901043727 | 63 | 0 | 0.0 | 0.0 | 0.00 | 0.00 | 0.00 | 83 | 1007.3 |
| 20260901043227 | 63 | 0 | 0.0 | 0.0 | 0.00 | 0.00 | 0.00 | 83 | 1007.3 |
| 20260901042727 | 63 | 0 | 0.0 | 0.0 | 0.00 | 0.00 | 0.00 | 83 | 1007.3 |
| 20260901042227 | 64 | 0 | 0.0 | 0.0 | 0.00 | 0.00 | 0.00 | 83 | 1007.4 |
| 20260901041727 | 64 | 0 | 0.0 | 0.0 | 0.00 | 0.00 | 0.00 | 82 | 1007.3 |
| 20260901041227 | 64 | 0 | 0.0 | 0.0 | 0.00 | 0.00 | 0.00 | 82 | 1007.3 |
| 20260901040727 | 64 | 0 | 0.0 | 0.0 | 0.00 | 0.00 | 0.00 | 82 | 1007.3 |
| 20260901040227 | 64 | 0 | 0.0 | 0.0 | 0.00 | 0.00 | 0.00 | 82 | 1007.2 |
| 20260901035727 | 64 | 0 | 0.0 | 0.0 | 0.00 | 0.00 | 0.00 | 82 | 1007.2 |
| 20260901035227 | 64 | 0 | 0.0 | 0.0 | 0.00 | 0.00 | 0.00 | 82 | 1007.1 |
| 20260901034727 | 64 | 0 | 0.0 | 0.0 | 0.00 | 0.00 | 0.00 | 82 | 1007.0 |
| 20260901034227 | 64 | 0 | 0.0 | 0.0 | 0.00 | 0.00 | 0.00 | 82 | 1007.0 |
| 20260901033727 | 64 | 0 | 0.0 | 0.0 | 0.00 | 0.00 | 0.00 | 81 | 1006.9 |
| 20260901033227 | 64 | 0 | 0.0 | 0.0 | 0.00 | 0.00 | 0.00 | 81 | 1006.8 |
| 20260901032727 | 64 | 0 | 0.0 | 7.0 | 0.00 | 0.00 | 0.00 | 81 | 1006.9 |
| 20260901032227 | 64 | 0 | 0.0 | 7.0 | 0.00 | 0.00 | 0.00 | 81 | 1006.7 |
| 20260901031727 | 64 | 355 | 0.0 | 7.0 | 0.00 | 0.00 | 0.00 | 81 | 1006.6 |
| 20260901031227 | 64 | 0 | 0.0 | 0.0 | 0.00 | 0.00 | 0.00 | 80 | 1006.6 |
| 20260901030727 | 64 | 0 | 0.0 | 0.0 | 0.00 | 0.00 | 0.00 | 80 | 1006.6 |
| 20260901030227 | 64 | 0 | 0.0 | 0.0 | 0.00 | 0.00 | 0.00 | 80 | 1006.6 |
| 20260901025727 | 64 | 0 | 0.0 | 0.0 | 0.00 | 0.00 | 0.00 | 80 | 1006.7 |
| 20260901025227 | 64 | 0 | 0.0 | 7.0 | 0.00 | 0.00 | 0.00 | 80 | 1006.8 |
| 20260901024727 | 64 | 0 | 0.0 | 7.0 | 0.00 | 0.00 | 0.00 | 80 | 1006.7 |
| 20260901024229 | 64 | 338 | 0.0 | 7.0 | 0.00 | 0.00 | 0.00 | 80 | 1006.6 |
| 20260901023727 | 64 | 341 | 2.0 | 11.0 | 0.00 | 0.00 | 0.00 | 80 | 1006.6 |
| 20260901023227 | 64 | 355 | 5.0 | 11.0 | 0.00 | 0.00 | 0.00 | 80 | 1006.5 |
| 20260901022727 | 64 | 357 | 6.0 | 11.0 | 0.00 | 0.00 | 0.00 | 79 | 1006.5 |
| 20260901022227 | 64 | 336 | 6.0 | 11.0 | 0.00 | 0.00 | 0.00 | 79 | 1006.4 |
| 20260901021727 | 64 | 343 | 8.0 | 15.0 | 0.00 | 0.00 | 0.00 | 79 | 1006.4 |
| 20260901021229 | 64 | 352 | 7.0 | 15.0 | 0.00 | 0.00 | 0.00 | 78 | 1006.4 |
| 20260901020727 | 65 | 2 | 8.0 | 15.0 | 0.00 | 0.00 | 0.00 | 78 | 1006.4 |
| 20260901020227 | 65 | 348 | 8.0 | 13.0 | 0.00 | 0.00 | 0.00 | 78 | 1006.4 |
| 20260901015727 | 65 | 352 | 7.0 | 14.0 | 0.00 | 0.00 | 0.00 | 78 | 1006.2 |
| 20260901015226 | 65 | 355 | 7.0 | 14.0 | 0.00 | 0.00 | 0.00 | 77 | 1006.2 |
| 20260901014727 | 66 | 343 | 4.0 | 14.0 | 0.00 | 0.00 | 0.00 | 76 | 1006.1 |
| 20260901014229 | 66 | 345 | 6.0 | 13.0 | 0.00 | 0.00 | 0.00 | 76 | 1006.0 |
| 20260901013726 | 66 | 352 | 7.0 | 13.0 | 0.00 | 0.00 | 0.00 | 75 | 1006.0 |
| 20260901013226 | 67 | 350 | 7.0 | 12.0 | 0.00 | 0.00 | 0.00 | 74 | 1006.0 |
| 20260901012726 | 67 | 343 | 9.0 | 10.0 | 0.00 | 0.00 | 0.00 | 74 | 1006.0 |
| 20260901012226 | 68 | 348 | 6.0 | 10.0 | 0.00 | 0.00 | 0.00 | 73 | 1006.0 |
| 20260901011726 | 68 | 345 | 6.0 | 9.0 | 0.00 | 0.00 | 0.00 | 73 | 1006.0 |
| 20260901011227 | 68 | 357 | 5.0 | 6.0 | 0.00 | 0.00 | 0.00 | 72 | 1006.1 |
| 20260901010726 | 68 | 334 | 0.0 | 4.0 | 0.00 | 0.00 | 0.00 | 72 | 1006.2 |
| 20260901010226 | 68 | 333 | 0.0 | 4.0 | 0.00 | 0.00 | 0.00 | 71 | 1006.4 |
| 20260901005726 | 68 | 330 | 0.0 | 5.0 | 0.00 | 0.00 | 0.00 | 70 | 1006.4 |
| 20260901005226 | 69 | 341 | 1.0 | 5.0 | 0.00 | 0.00 | 0.00 | 70 | 1006.5 |
| 20260901004726 | 69 | 317 | 1.0 | 5.0 | 0.00 | 0.00 | 0.00 | 69 | 1006.2 |
| 20260901004226 | 70 | 0 | 0.0 | 6.0 | 0.00 | 0.00 | 0.00 | 69 | 1006.4 |
| 20260901003726 | 70 | 350 | 0.0 | 6.0 | 0.00 | 0.00 | 0.00 | 68 | 1006.4 |
| 20260901003226 | 70 | 330 | 0.0 | 6.0 | 0.00 | 0.00 | 0.00 | 68 | 1006.4 |
| 20260901002726 | 71 | 308 | 1.0 | 7.0 | 0.00 | 0.00 | 0.00 | 67 | 1006.4 |
| 20260901002227 | 71 | 326 | 4.0 | 7.0 | 0.00 | 0.00 | 0.00 | 67 | 1006.4 |
| 20260901001726 | 71 | 330 | 2.0 | 7.0 | 0.00 | 0.00 | 0.00 | 66 | 1006.4 |
| 20260901001227 | 71 | 341 | 3.0 | 10.0 | 0.00 | 0.00 | 0.00 | 66 | 1006.5 |
| 20260901000726 | 72 | 357 | 3.0 | 10.0 | 0.00 | 0.00 | 0.00 | 65 | 1006.4 |
| 20260901000226 | 72 | 329 | 0.0 | 10.0 | 0.00 | 0.00 | 0.00 | 64 | 1006.5 |
| 20260831235726 | 72 | 324 | 4.0 | 8.0 | 0.00 | 0.00 | 0.00 | 64 | 1006.5 |
| 20260831235226 | 72 | 323 | 4.0 | 8.0 | 0.00 | 0.00 | 0.00 | 63 | 1006.5 |
| 20260831234726 | 72 | 327 | 1.0 | 7.0 | 0.00 | 0.00 | 0.00 | 62 | 1006.4 |
| 20260831234226 | 72 | 333 | 3.0 | 7.0 | 0.00 | 0.00 | 0.00 | 62 | 1006.4 |
| 20260831233726 | 72 | 327 | 2.0 | 7.0 | 0.00 | 0.00 | 0.00 | 62 | 1006.4 |
| 20260831233226 | 73 | 322 | 0.0 | 6.0 | 0.00 | 0.00 | 0.00 | 62 | 1006.5 |
| 20260831232726 | 73 | 327 | 1.0 | 6.0 | 0.00 | 0.00 | 0.00 | 61 | 1006.5 |
| 20260831232226 | 73 | 336 | 1.0 | 8.0 | 0.00 | 0.00 | 0.00 | 61 | 1006.4 |
| 20260831231726 | 73 | 330 | 0.0 | 8.0 | 0.00 | 0.00 | 0.00 | 61 | 1006.5 |
| 20260831231226 | 73 | 317 | 4.0 | 8.0 | 0.00 | 0.00 | 0.00 | 61 | 1006.5 |
| 20260831230729 | 73 | 329 | 1.0 | 8.0 | 0.00 | 0.00 | 0.00 | 60 | 1006.5 |
| 20260831230226 | 73 | 330 | 3.0 | 8.0 | 0.00 | 0.00 | 0.00 | 60 | 1006.5 |
| 20260831225726 | 73 | 329 | 2.0 | 8.0 | 0.00 | 0.00 | 0.00 | 59 | 1006.4 |
| 20260831225226 | 73 | 324 | 3.0 | 10.0 | 0.00 | 0.00 | 0.00 | 59 | 1006.4 |
| 20260831224726 | 74 | 305 | 5.0 | 10.0 | 0.00 | 0.00 | 0.00 | 59 | 1006.2 |
| 20260831224226 | 74 | 315 | 2.0 | 10.0 | 0.00 | 0.00 | 0.00 | 58 | 1006.2 |
| 20260831223726 | 74 | 322 | 7.0 | 7.0 | 0.00 | 0.00 | 0.00 | 58 | 1006.4 |
| 20260831223226 | 75 | 326 | 1.0 | 7.0 | 0.00 | 0.00 | 0.00 | 58 | 1006.4 |
| 20260831222726 | 75 | 310 | 2.0 | 7.0 | 0.00 | 0.00 | 0.00 | 57 | 1006.2 |
| 20260831222226 | 75 | 320 | 1.0 | 7.0 | 0.00 | 0.00 | 0.00 | 57 | 1006.2 |
| 20260831221726 | 75 | 354 | 4.0 | 7.0 | 0.00 | 0.00 | 0.00 | 56 | 1006.4 |
| 20260831221226 | 75 | 329 | 0.0 | 7.0 | 0.00 | 0.00 | 0.00 | 56 | 1006.4 |
| 20260831220726 | 75 | 329 | 1.0 | 7.0 | 0.00 | 0.00 | 0.00 | 55 | 1006.4 |
| 20260831220226 | 76 | 323 | 2.0 | 7.0 | 0.00 | 0.00 | 0.00 | 55 | 1006.2 |
| 20260831215727 | 76 | 310 | 2.0 | 6.0 | 0.00 | 0.00 | 0.00 | 54 | 1006.2 |
| 20260831215226 | 76 | 334 | 1.0 | 8.0 | 0.00 | 0.00 | 0.00 | 53 | 1006.2 |
| 20260831214726 | 76 | 334 | 1.0 | 8.0 | 0.00 | 0.00 | 0.00 | 54 | 1006.2 |
| 20260831214226 | 76 | 326 | 1.0 | 8.0 | 0.00 | 0.00 | 0.00 | 53 | 1006.2 |
| 20260831213726 | 76 | 2 | 0.0 | 7.0 | 0.00 | 0.00 | 0.00 | 53 | 1006.4 |
| 20260831213226 | 76 | 320 | 0.0 | 9.0 | 0.00 | 0.00 | 0.00 | 53 | 1006.4 |
| 20260831212726 | 76 | 327 | 3.0 | 9.0 | 0.00 | 0.00 | 0.00 | 53 | 1006.4 |
| 20260831212226 | 76 | 316 | 4.0 | 9.0 | 0.00 | 0.00 | 0.00 | 54 | 1006.4 |
| 20260831211726 | 76 | 336 | 5.0 | 8.0 | 0.00 | 0.00 | 0.00 | 54 | 1006.4 |
| 20260831211226 | 76 | 5 | 4.0 | 8.0 | 0.00 | 0.00 | 0.00 | 54 | 1006.5 |
| 20260831210726 | 76 | 334 | 3.0 | 8.0 | 0.00 | 0.00 | 0.00 | 54 | 1006.4 |
| 20260831210226 | 76 | 337 | 5.0 | 9.0 | 0.00 | 0.00 | 0.00 | 55 | 1006.4 |
| 20260831205726 | 75 | 334 | 5.0 | 9.0 | 0.00 | 0.00 | 0.00 | 55 | 1006.5 |
| 20260831205228 | 75 | 340 | 4.0 | 9.0 | 0.00 | 0.00 | 0.00 | 56 | 1006.4 |
| 20260831204726 | 74 | 337 | 5.0 | 9.0 | 0.00 | 0.00 | 0.00 | 56 | 1006.4 |
| 20260831204226 | 74 | 340 | 3.0 | 9.0 | 0.00 | 0.00 | 0.00 | 57 | 1006.5 |
| 20260831203726 | 74 | 338 | 5.0 | 9.0 | 0.00 | 0.00 | 0.00 | 57 | 1006.5 |
| 20260831203226 | 73 | 348 | 5.0 | 11.0 | 0.00 | 0.00 | 0.00 | 57 | 1006.5 |
| 20260831202726 | 73 | 330 | 6.0 | 11.0 | 0.00 | 0.00 | 0.00 | 57 | 1006.6 |
| 20260831202226 | 72 | 336 | 7.0 | 11.0 | 0.00 | 0.00 | 0.00 | 56 | 1006.7 |
| 20260831201726 | 72 | 326 | 1.0 | 9.0 | 0.00 | 0.00 | 0.00 | 55 | 1006.6 |
| 20260831201226 | 72 | 326 | 4.0 | 8.0 | 0.00 | 0.00 | 0.00 | 54 | 1006.6 |
| 20260831200727 | 72 | 324 | 5.0 | 8.0 | 0.00 | 0.00 | 0.00 | 55 | 1006.6 |
| 20260831200226 | 72 | 355 | 6.0 | 7.0 | 0.00 | 0.00 | 0.00 | 55 | 1006.6 |
| 20260831195726 | 73 | 326 | 0.0 | 8.0 | 0.00 | 0.00 | 0.00 | 55 | 1006.6 |
| 20260831195226 | 73 | 331 | 3.0 | 8.0 | 0.00 | 0.00 | 0.00 | 54 | 1006.6 |
| 20260831194726 | 73 | 323 | 0.0 | 8.0 | 0.00 | 0.00 | 0.00 | 53 | 1006.6 |
| 20260831194226 | 74 | 336 | 3.0 | 9.0 | 0.00 | 0.00 | 0.00 | 52 | 1006.5 |
| 20260831193727 | 75 | 330 | 2.0 | 9.0 | 0.00 | 0.00 | 0.00 | 51 | 1006.6 |
| 20260831193625 | 75 | 337 | 1.0 | 9.0 | 0.00 | 0.00 | 0.00 | 49 | 1006.7 |
| 20260831193226 | 75 | 337 | 1.0 | 9.0 | 0.00 | 0.00 | 0.00 | 49 | 1006.7 |
| 20260831192726 | 76 | 333 | 2.0 | 9.0 | 0.00 | 0.00 | 0.00 | 49 | 1006.7 |
| 20260831192226 | 76 | 348 | 3.0 | 9.0 | 0.00 | 0.00 | 0.00 | 48 | 1006.7 |
| 20260831191726 | 77 | 341 | 5.0 | 9.0 | 0.00 | 0.00 | 0.00 | 47 | 1006.6 |
| 20260831191226 | 77 | 345 | 7.0 | 9.0 | 0.00 | 0.00 | 0.00 | 46 | 1006.7 |
| 20260831190726 | 78 | 347 | 7.0 | 8.0 | 0.00 | 0.00 | 0.00 | 45 | 1006.9 |
| 20260831190226 | 78 | 333 | 0.0 | 7.0 | 0.00 | 0.00 | 0.00 | 44 | 1006.9 |
| 20260831185726 | 78 | 326 | 0.0 | 7.0 | 0.00 | 0.00 | 0.00 | 44 | 1007.0 |
| 20260831185226 | 78 | 351 | 0.0 | 6.0 | 0.00 | 0.00 | 0.00 | 44 | 1007.0 |
| 20260831184726 | 78 | 345 | 1.0 | 6.0 | 0.00 | 0.00 | 0.00 | 44 | 1007.0 |
| 20260831184226 | 78 | 0 | 0.0 | 0.0 | 0.00 | 0.00 | 0.00 | 44 | 1007.1 |
| 20260831183726 | 78 | 0 | 0.0 | 0.0 | 0.00 | 0.00 | 0.00 | 44 | 1007.0 |
| 20260831183226 | 79 | 0 | 0.0 | 0.0 | 0.00 | 0.00 | 0.00 | 44 | 1007.0 |
| 20260831182726 | 78 | 0 | 0.0 | 0.0 | 0.00 | 0.00 | 0.00 | 44 | 1007.0 |
| 20260831182226 | 78 | 0 | 0.0 | 0.0 | 0.00 | 0.00 | 0.00 | 44 | 1007.1 |
| 20260831181726 | 78 | 0 | 0.0 | 0.0 | 0.00 | 0.00 | 0.00 | 44 | 1007.1 |
| 20260831181226 | 78 | 0 | 0.0 | 6.0 | 0.00 | 0.00 | 0.00 | 44 | 1007.1 |
| 20260831180726 | 78 | 331 | 0.0 | 6.0 | 0.00 | 0.00 | 0.00 | 44 | 1007.1 |
| 20260831180226 | 78 | 327 | 3.0 | 6.0 | 0.00 | 0.00 | 0.00 | 45 | 1007.1 |
| 20260831175726 | 78 | 313 | 0.0 | 3.0 | 0.00 | 0.00 | 0.00 | 46 | 1007.1 |
| 20260831175227 | 78 | 0 | 0.0 | 0.0 | 0.00 | 0.00 | 0.00 | 46 | 1007.1 |
| 20260831174726 | 78 | 0 | 0.0 | 5.0 | 0.00 | 0.00 | 0.00 | 46 | 1007.1 |
| 20260831174226 | 78 | 340 | 0.0 | 5.0 | 0.00 | 0.00 | 0.00 | 47 | 1007.1 |
| 20260831173726 | 77 | 329 | 0.0 | 5.0 | 0.00 | 0.00 | 0.00 | 47 | 1007.1 |
| 20260831173226 | 78 | 0 | 0.0 | 5.0 | 0.00 | 0.00 | 0.00 | 46 | 1007.2 |
| 20260831172726 | 78 | 326 | 0.0 | 5.0 | 0.00 | 0.00 | 0.00 | 46 | 1007.2 |
| 20260831172226 | 78 | 326 | 0.0 | 5.0 | 0.00 | 0.00 | 0.00 | 46 | 1007.1 |
| 20260831171726 | 78 | 0 | 0.0 | 0.0 | 0.00 | 0.00 | 0.00 | 46 | 1007.1 |
| 20260831171226 | 78 | 0 | 0.0 | 0.0 | 0.00 | 0.00 | 0.00 | 47 | 1007.2 |
| 20260831170726 | 78 | 0 | 0.0 | 0.0 | 0.00 | 0.00 | 0.00 | 48 | 1007.1 |
| 20260831170226 | 78 | 0 | 0.0 | 0.0 | 0.00 | 0.00 | 0.00 | 48 | 1007.1 |
| 20260831165726 | 77 | 0 | 0.0 | 0.0 | 0.00 | 0.00 | 0.00 | 49 | 1007.1 |
| 20260831165226 | 77 | 0 | 0.0 | 0.0 | 0.00 | 0.00 | 0.00 | 50 | 1007.1 |
| 20260831164727 | 76 | 0 | 0.0 | 0.0 | 0.00 | 0.00 | 0.00 | 52 | 1007.2 |
| 20260831164227 | 76 | 0 | 0.0 | 0.0 | 0.00 | 0.00 | 0.00 | 53 | 1007.2 |
| 20260831163726 | 75 | 0 | 0.0 | 0.0 | 0.00 | 0.00 | 0.00 | 56 | 1007.3 |
| 20260831163226 | 75 | 0 | 0.0 | 0.0 | 0.00 | 0.00 | 0.00 | 58 | 1007.3 |
| 20260831162726 | 74 | 0 | 0.0 | 0.0 | 0.00 | 0.00 | 0.00 | 60 | 1007.4 |
| 20260831162226 | 73 | 0 | 0.0 | 0.0 | 0.00 | 0.00 | 0.00 | 64 | 1007.4 |
| 20260831161726 | 71 | 0 | 0.0 | 0.0 | 0.00 | 0.00 | 0.00 | 67 | 1007.5 |
| 20260831161226 | 70 | 0 | 0.0 | 0.0 | 0.00 | 0.00 | 0.00 | 67 | 1007.5 |
| 20260831160726 | 68 | 0 | 0.0 | 0.0 | 0.00 | 0.00 | 0.00 | 71 | 1007.5 |
| 20260831160226 | 67 | 0 | 0.0 | 0.0 | 0.00 | 0.00 | 0.00 | 71 | 1007.6 |
| 20260831155726 | 67 | 0 | 0.0 | 0.0 | 0.00 | 0.00 | 0.00 | 72 | 1007.6 |
| 20260831155226 | 67 | 0 | 0.0 | 0.0 | 0.00 | 0.00 | 0.00 | 71 | 1007.6 |
| 20260831154726 | 67 | 0 | 0.0 | 0.0 | 0.00 | 0.00 | 0.00 | 73 | 1007.7 |
| 20260831154226 | 66 | 0 | 0.0 | 0.0 | 0.00 | 0.00 | 0.00 | 73 | 1007.7 |
| 20260831153726 | 67 | 0 | 0.0 | 0.0 | 0.00 | 0.00 | 0.00 | 71 | 1007.8 |
| 20260831153226 | 68 | 0 | 0.0 | 0.0 | 0.00 | 0.00 | 0.00 | 69 | 1007.8 |
| 20260831152726 | 68 | 0 | 0.0 | 0.0 | 0.00 | 0.00 | 0.00 | 71 | 1007.8 |
| 20260831152226 | 69 | 0 | 0.0 | 0.0 | 0.00 | 0.00 | 0.00 | 75 | 1007.9 |
| 20260831151726 | 68 | 0 | 0.0 | 0.0 | 0.00 | 0.00 | 0.00 | 78 | 1007.9 |
| 20260831151226 | 67 | 0 | 0.0 | 0.0 | 0.00 | 0.00 | 0.00 | 82 | 1008.0 |
| 20260831150726 | 66 | 0 | 0.0 | 0.0 | 0.00 | 0.00 | 0.00 | 85 | 1007.9 |
| 20260831150226 | 65 | 0 | 0.0 | 0.0 | 0.00 | 0.00 | 0.00 | 88 | 1007.9 |
| 20260831145726 | 65 | 0 | 0.0 | 0.0 | 0.00 | 0.00 | 0.00 | 91 | 1007.8 |
| 20260831145226 | 63 | 0 | 0.0 | 0.0 | 0.00 | 0.00 | 0.00 | 94 | 1007.8 |
| 20260831144726 | 62 | 0 | 0.0 | 0.0 | 0.00 | 0.00 | 0.00 | 95 | 1007.8 |
| 20260831144226 | 61 | 0 | 0.0 | 0.0 | 0.00 | 0.00 | 0.00 | 96 | 1007.8 |
| 20260831143726 | 60 | 0 | 0.0 | 0.0 | 0.00 | 0.00 | 0.00 | 96 | 1007.7 |
| 20260831143226 | 59 | 0 | 0.0 | 0.0 | 0.00 | 0.00 | 0.00 | 97 | 1007.7 |
| 20260831142726 | 58 | 0 | 0.0 | 0.0 | 0.00 | 0.00 | 0.00 | 97 | 1007.6 |
| 20260831142226 | 57 | 0 | 0.0 | 0.0 | 0.00 | 0.00 | 0.00 | 97 | 1007.5 |
| 20260831141726 | 57 | 0 | 0.0 | 0.0 | 0.00 | 0.00 | 0.00 | 97 | 1007.5 |
| 20260831141226 | 56 | 0 | 0.0 | 0.0 | 0.00 | 0.00 | 0.00 | 97 | 1007.5 |
| 20260831140726 | 56 | 0 | 0.0 | 0.0 | 0.00 | 0.00 | 0.00 | 97 | 1007.5 |
| 20260831140226 | 56 | 0 | 0.0 | 0.0 | 0.00 | 0.00 | 0.00 | 97 | 1007.5 |
| 20260831135726 | 55 | 0 | 0.0 | 0.0 | 0.00 | 0.00 | 0.00 | 97 | 1007.5 |
| 20260831135226 | 56 | 0 | 0.0 | 0.0 | 0.00 | 0.00 | 0.00 | 97 | 1007.4 |
| 20260831134726 | 55 | 0 | 0.0 | 0.0 | 0.00 | 0.00 | 0.00 | 97 | 1007.5 |
| 20260831134226 | 55 | 0 | 0.0 | 0.0 | 0.00 | 0.00 | 0.00 | 97 | 1007.5 |
| 20260831133726 | 56 | 0 | 0.0 | 0.0 | 0.00 | 0.00 | 0.00 | 97 | 1007.6 |
| 20260831133226 | 55 | 0 | 0.0 | 0.0 | 0.00 | 0.00 | 0.00 | 97 | 1007.6 |
| 20260831132726 | 55 | 0 | 0.0 | 0.0 | 0.00 | 0.00 | 0.00 | 97 | 1007.6 |
| 20260831132226 | 56 | 0 | 0.0 | 0.0 | 0.00 | 0.00 | 0.00 | 97 | 1007.6 |
| 20260831131726 | 56 | 0 | 0.0 | 0.0 | 0.00 | 0.00 | 0.00 | 97 | 1007.7 |
| 20260831131226 | 55 | 0 | 0.0 | 0.0 | 0.00 | 0.00 | 0.00 | 97 | 1007.7 |
| 20260831130726 | 56 | 0 | 0.0 | 0.0 | 0.00 | 0.00 | 0.00 | 97 | 1007.7 |
| 20260831130226 | 55 | 0 | 0.0 | 0.0 | 0.00 | 0.00 | 0.00 | 97 | 1007.8 |
| 20260831125726 | 55 | 0 | 0.0 | 0.0 | 0.00 | 0.00 | 0.00 | 97 | 1007.8 |
| 20260831125226 | 55 | 0 | 0.0 | 0.0 | 0.00 | 0.00 | 0.00 | 96 | 1007.8 |
| 20260831124726 | 56 | 0 | 0.0 | 0.0 | 0.00 | 0.00 | 0.00 | 96 | 1007.7 |
| 20260831124226 | 56 | 0 | 0.0 | 0.0 | 0.00 | 0.00 | 0.00 | 96 | 1007.7 |
| 20260831123726 | 56 | 0 | 0.0 | 0.0 | 0.00 | 0.00 | 0.00 | 96 | 1007.7 |
| 20260831123226 | 56 | 0 | 0.0 | 0.0 | 0.00 | 0.00 | 0.00 | 96 | 1007.8 |
| 20260831122726 | 56 | 0 | 0.0 | 0.0 | 0.00 | 0.00 | 0.00 | 96 | 1007.8 |
| 20260831122226 | 56 | 0 | 0.0 | 0.0 | 0.00 | 0.00 | 0.00 | 96 | 1007.8 |
| 20260831121727 | 56 | 0 | 0.0 | 0.0 | 0.00 | 0.00 | 0.00 | 96 | 1007.9 |
| 20260831121227 | 56 | 0 | 0.0 | 0.0 | 0.00 | 0.00 | 0.00 | 96 | 1008.0 |
| 20260831120726 | 56 | 0 | 0.0 | 0.0 | 0.00 | 0.00 | 0.00 | 96 | 1008.0 |
| 20260831120226 | 56 | 0 | 0.0 | 0.0 | 0.00 | 0.00 | 0.00 | 96 | 1008.0 |
| 20260831115726 | 56 | 0 | 0.0 | 0.0 | 0.00 | 0.00 | 0.00 | 96 | 1008.0 |
| 20260831115226 | 56 | 0 | 0.0 | 0.0 | 0.00 | 0.00 | 0.00 | 95 | 1008.1 |
| 20260831114726 | 56 | 0 | 0.0 | 0.0 | 0.00 | 0.00 | 0.00 | 95 | 1008.1 |
| 20260831114229 | 56 | 0 | 0.0 | 0.0 | 0.00 | 0.00 | 0.00 | 95 | 1008.1 |
| 20260831113726 | 56 | 0 | 0.0 | 0.0 | 0.00 | 0.00 | 0.00 | 95 | 1008.2 |
| 20260831113226 | 56 | 0 | 0.0 | 0.0 | 0.00 | 0.00 | 0.00 | 95 | 1008.1 |
| 20260831112727 | 56 | 0 | 0.0 | 0.0 | 0.00 | 0.00 | 0.00 | 95 | 1008.2 |
| 20260831112226 | 56 | 0 | 0.0 | 0.0 | 0.00 | 0.00 | 0.00 | 95 | 1008.3 |
| 20260831111726 | 56 | 0 | 0.0 | 0.0 | 0.00 | 0.00 | 0.00 | 95 | 1008.3 |
| 20260831111226 | 56 | 0 | 0.0 | 0.0 | 0.00 | 0.00 | 0.00 | 95 | 1008.2 |
| 20260831110726 | 57 | 0 | 0.0 | 0.0 | 0.00 | 0.00 | 0.00 | 94 | 1008.2 |
| 20260831110226 | 57 | 0 | 0.0 | 0.0 | 0.00 | 0.00 | 0.00 | 94 | 1008.3 |
| 20260831105726 | 57 | 0 | 0.0 | 0.0 | 0.00 | 0.00 | 0.00 | 94 | 1008.2 |
| 20260831105226 | 57 | 0 | 0.0 | 0.0 | 0.00 | 0.00 | 0.00 | 94 | 1008.2 |